Regional Weather Roundup
Issued by NWS Midland/Odessa, TX

Current Version | Previous Version | Text Only | Print | Product List | Glossary On
Versions: 1 2 3 4 5 6 7 8 9 10 11 12 13 14 15 16 17 18 19 20 21 22 23 24 25 26 27 28 29 30 31 32 33 34 35 36 37 38 39 40 41 42 43 44 45 46 47 48 49 50
000
ASUS44 KMAF 302101
RWRMAF
MIDLAND AREA WEATHER ROUNDUP
NATIONAL WEATHER SERVICE MIDLAND TX
400 PM CDT MON MAR 30 2020

...IN SOUTHWEST TEXAS AND SOUTHEAST NEW MEXICO...

CITY           SKY/WX    TMP DP  RH WIND       PRES   REMARKS
ALPINE         FAIR      74   8   8 W28G35    30.10S
ANDREWS        FAIR      78  15   9 W25G36    29.90F
ARTESIA        FAIR      73  16  11 NW24G33   29.97S
BIG SPRING     FAIR      80  31  16 W21G29    29.86F
CARLSBAD       FAIR      75  13   9 W32G39    29.93F
DRYDEN         NOT AVBL
FORT STOCKTON  FAIR      80  19  10 W28G38    29.94F
GUAD PASS      FAIR      63  10  12 W43G61    30.04F
HOBBS          SUNNY     75  14   9 W23G35    29.91F
LAMESA         NOT AVBL
MARFA          NOT AVBL
MIDLAND AIRPK  FAIR      79  26  14 W21G28    29.89F
MIDLAND INTL   FAIR      81  22  11 W25G37    29.89F
ODESSA         FAIR      79  19  10 W15G24    29.91F
PECOS          FAIR      81  11   7 W29G37    29.93F
PRESIDIO       FAIR      83  18   9 NW22G29   29.99S
SEMINOLE       FAIR      76  23  13 W28       29.94F
SNYDER         FAIR      76  43  31 SW13G21   29.86F
WINK           FAIR      80  13   8 W31G40    29.90F
$$
...OTHER STATIONS IN TEXAS...

CITY           SKY/WX    TMP DP  RH WIND       PRES   REMARKS
ABILENE        CLOUDY    64  60  87 SW12      29.90F
AMARILLO       FAIR      70  38  31 S16G23    29.84F
AUSTIN         LGT RAIN  69  67  93 NW3       29.86F FOG
BROWNSVILLE    FAIR      87  68  52 SE21G28   29.84F
CORPUS CHRISTI CLOUDY    85  69  58 SE24G31   29.86F
DALLAS FTW     LGT RAIN  55  53  93 SE18G26   29.87F
DEL RIO        NOT AVBL
EL PASO        FAIR      71  14  11 NW12G26   30.05F
HOUSTON INT    PTSUNNY   81  63  54 S15G24    29.88F
LUBBOCK        FAIR      76  29  17 W24       29.84F
SAN ANGELO     FAIR      74  60  61 S9        29.88F
SAN ANTONIO    CLOUDY    70  67  90 N3        29.88F FOG
WACO           LGT RAIN  61  58  90 CALM      29.90S FOG
WICHITA FALLS  CLOUDY    63  38  39 S14       30.01F
$$
...OTHER LOCATIONS IN NEW MEXICO...

CITY           SKY/WX    TMP DP  RH WIND       PRES   REMARKS
ALAMOGORDO     FAIR      68  14  12 N10G22    30.06F
ALBUQUERQUE    FAIR      59  17  19 NW23G31   30.08F
CANNON AFB     NOT AVBL
CLOVIS         FAIR      68  17  14 W29G41    29.90F
HOLLOMAN AFB   FAIR      68  16  13 W16G23    30.05F
ROSWELL        FAIR      74  15  10 W23G38    29.95R
RUIDOSO        FAIR      54  12  19 NW28G41   30.10F
SANTA FE       FAIR      55  21  26 W23G30    30.05F
TRUTH OR CONSE FAIR      67  10  11 NW16G31   30.07F
TUCUMCARI      FAIR      71  15  11 W23G39    29.84F
$$



USA.gov is the U.S. government's official web portal to all federal, state and local government web resources and services.